This is the latest recevied weather packets stored in our database for station/object SR4DIG-13. If no packets are shown the sender has not sent any weather packets the latest 10 day(s).
| Time | Temp. | Humidity | Pressure | Rain* | Wind** | Luminosity | Snow |
|---|---|---|---|---|---|---|---|
| 1777970082 | 22.22° C | 50% | 1009.9 hPa | 0 mm | - | - | - |
| 1777969781 | 22.22° C | 50% | 1010 hPa | 0 mm | - | - | - |
| 1777969480 | 22.22° C | 50% | 1010.1 hPa | 0 mm | - | - | - |
| 1777969179 | 21.67° C | 51% | 1010.1 hPa | 0 mm | - | - | - |
| 1777968878 | 21.11° C | 53% | 1010.1 hPa | 0 mm | - | - | - |
| 1777968577 | 21.11° C | 53% | 1010.1 hPa | 0 mm | - | - | - |
| 1777968276 | 21.11° C | 55% | 1010.2 hPa | 0 mm | - | - | - |
| 1777967976 | 20° C | 54% | 1010.1 hPa | 0 mm | - | - | - |
| 1777967383 | 20° C | 54% | 1010.2 hPa | 0 mm | - | - | - |
| 1777967082 | 20.56° C | 54% | 1010.2 hPa | 0 mm | - | - | - |
| 1777966781 | 20.56° C | 54% | 1010.2 hPa | 0 mm | - | - | - |
| 1777966480 | 20° C | 55% | 1010.3 hPa | 0 mm | - | - | - |
| 1777966179 | 20° C | 55% | 1010.4 hPa | 0 mm | - | - | - |
| 1777965879 | 20° C | 55% | 1010.3 hPa | 0 mm | - | - | - |
| 1777965578 | 19.44° C | 57% | 1010.4 hPa | 0 mm | - | - | - |
| 1777964933 | 18.89° C | 58% | 1010.6 hPa | 0 mm | - | - | - |
| 1777964633 | 19.44° C | 56% | 1010.7 hPa | 0 mm | - | - | - |
| 1777964332 | 20° C | 56% | 1010.8 hPa | 0 mm | - | - | - |
| 1777963709 | 20° C | 57% | 1010.9 hPa | 0 mm | - | - | - |
| 1777963408 | 19.44° C | 57% | 1010.8 hPa | 0 mm | - | - | - |
| 1777963107 | 19.44° C | 57% | 1010.9 hPa | 0 mm | - | - | - |
| 1777962506 | 19.44° C | 59% | 1011.2 hPa | 0 mm | - | - | - |
| 1777962205 | 18.89° C | 60% | 1010.9 hPa | 0 mm | - | - | - |
| 1777961904 | 18.33° C | 61% | 1010.9 hPa | 0 mm | - | - | - |
| 1777961483 | 17.78° C | 62% | 1011 hPa | 0 mm | - | - | - |
* Rain since midnight (hover to see other rain measurements)
** Current wind speed in m/s (hover to see current wind gust speed)